TimeCST,TemperatureF,Dew PointF,Humidity,Sea Level PressureIn,VisibilityMPH,Wind Direction,Wind SpeedMPH,Gust SpeedMPH,PrecipitationIn,Events,Conditions,WindDirDegrees,DateUTC
12:15 AM,30.2,21.2,69,30.22,10.0,SW,4.6,-,N/A,,Clear,220,2013-02-08 06:15:00
12:35 AM,28.4,21.2,74,30.23,10.0,WSW,5.8,-,N/A,,Clear,240,2013-02-08 06:35:00
12:55 AM,28.4,21.2,74,30.23,10.0,WSW,8.1,-,N/A,,Clear,240,2013-02-08 06:55:00
1:15 AM,28.4,21.2,74,30.23,10.0,WSW,8.1,-,N/A,,Clear,240,2013-02-08 07:15:00
1:35 AM,30.2,23.0,75,30.23,10.0,SW,6.9,-,N/A,,Clear,220,2013-02-08 07:35:00
1:55 AM,30.2,21.2,69,30.23,10.0,WSW,4.6,-,N/A,,Clear,240,2013-02-08 07:55:00
2:15 AM,30.2,23.0,75,30.23,10.0,West,4.6,-,N/A,,Clear,260,2013-02-08 08:15:00
2:55 AM,28.4,21.2,74,30.23,10.0,SW,4.6,-,N/A,,Clear,220,2013-02-08 08:55:00
3:15 AM,32.0,23.0,69,30.23,10.0,SW,3.5,-,N/A,,Clear,230,2013-02-08 09:15:00
3:35 AM,32.0,23.0,69,30.22,10.0,Calm,Calm,-,N/A,,Clear,0,2013-02-08 09:35:00
3:55 AM,26.6,19.4,74,30.23,10.0,West,8.1,-,N/A,,Clear,270,2013-02-08 09:55:00
4:15 AM,26.6,21.2,80,30.23,10.0,West,8.1,-,N/A,,Clear,270,2013-02-08 10:15:00
4:55 AM,26.6,21.2,80,30.23,10.0,Calm,Calm,-,N/A,,Clear,0,2013-02-08 10:55:00
5:15 AM,26.6,21.2,80,30.23,10.0,Calm,Calm,-,N/A,,Clear,0,2013-02-08 11:15:00
5:35 AM,26.6,21.2,80,30.22,10.0,SW,3.5,-,N/A,,Clear,230,2013-02-08 11:35:00
5:55 AM,26.6,21.2,80,30.22,10.0,Calm,Calm,-,N/A,,Clear,0,2013-02-08 11:55:00
6:15 AM,26.6,21.2,80,30.22,10.0,Calm,Calm,-,N/A,,Clear,0,2013-02-08 12:15:00
6:35 AM,28.4,23.0,80,30.21,10.0,Calm,Calm,-,N/A,,Clear,0,2013-02-08 12:35:00
6:55 AM,23.0,19.4,86,30.22,10.0,Calm,Calm,-,N/A,,Clear,0,2013-02-08 12:55:00
7:15 AM,21.2,19.4,93,30.23,10.0,Calm,Calm,-,N/A,,Clear,0,2013-02-08 13:15:00
7:35 AM,23.0,17.6,80,30.23,10.0,Calm,Calm,-,N/A,,Clear,0,2013-02-08 13:35:00
7:55 AM,21.2,19.4,93,30.24,10.0,West,4.6,-,N/A,,Clear,260,2013-02-08 13:55:00
8:15 AM,23.0,21.2,93,30.24,10.0,Calm,Calm,-,N/A,,Clear,0,2013-02-08 14:15:00
8:35 AM,30.2,26.6,86,30.24,10.0,Calm,Calm,-,N/A,,Clear,0,2013-02-08 14:35:00
8:55 AM,32.0,26.6,80,30.24,10.0,West,3.5,-,N/A,,Clear,260,2013-02-08 14:55:00
9:15 AM,33.8,26.6,75,30.24,10.0,Calm,Calm,-,N/A,,Clear,0,2013-02-08 15:15:00
9:35 AM,33.8,26.6,75,30.24,10.0,Calm,Calm,-,N/A,,Clear,0,2013-02-08 15:35:00
10:15 AM,46.4,21.2,37,30.24,10.0,South,12.7,19.6,N/A,,Clear,170,2013-02-08 16:15:00
10:35 AM,46.4,21.2,37,30.23,10.0,South,15.0,19.6,N/A,,Clear,170,2013-02-08 16:35:00
10:55 AM,46.4,21.2,37,30.23,10.0,South,16.1,20.7,N/A,,Clear,170,2013-02-08 16:55:00
11:15 AM,48.2,21.2,34,30.23,10.0,South,18.4,23.0,N/A,,Clear,180,2013-02-08 17:15:00
11:35 AM,50.0,21.2,32,30.23,10.0,South,16.1,23.0,N/A,,Clear,170,2013-02-08 17:35:00
11:55 AM,51.8,21.2,30,30.23,10.0,South,18.4,21.9,N/A,,Clear,170,2013-02-08 17:55:00
12:15 PM,51.8,21.2,30,30.21,10.0,South,16.1,21.9,N/A,,Clear,170,2013-02-08 18:15:00
12:35 PM,53.6,23.0,30,30.19,10.0,South,15.0,24.2,N/A,,Clear,180,2013-02-08 18:35:00
12:55 PM,55.4,21.2,26,30.17,10.0,SSE,13.8,20.7,N/A,,Clear,160,2013-02-08 18:55:00
1:15 PM,55.4,21.2,26,30.17,10.0,South,18.4,26.5,N/A,,Clear,180,2013-02-08 19:15:00
1:35 PM,55.4,21.2,26,30.16,10.0,South,17.3,23.0,N/A,,Clear,190,2013-02-08 19:35:00
1:55 PM,55.4,21.2,26,30.15,10.0,South,18.4,23.0,N/A,,Clear,180,2013-02-08 19:55:00
2:15 PM,55.4,19.4,25,30.13,10.0,South,18.4,21.9,N/A,,Clear,170,2013-02-08 20:15:00
2:35 PM,53.6,19.4,26,30.13,10.0,South,20.7,26.5,N/A,,Clear,190,2013-02-08 20:35:00
2:55 PM,53.6,19.4,26,30.12,10.0,South,16.1,25.3,N/A,,Clear,170,2013-02-08 20:55:00
3:15 PM,53.6,19.4,26,30.10,10.0,SSE,17.3,24.2,N/A,,Clear,160,2013-02-08 21:15:00
3:35 PM,53.6,19.4,26,30.09,10.0,SSE,16.1,23.0,N/A,,Clear,150,2013-02-08 21:35:00
3:55 PM,55.4,19.4,25,30.07,10.0,SSE,19.6,26.5,N/A,,Clear,160,2013-02-08 21:55:00
4:15 PM,53.6,17.6,24,30.07,10.0,South,19.6,25.3,N/A,,Clear,170,2013-02-08 22:15:00
4:35 PM,53.6,17.6,24,30.07,10.0,South,20.7,24.2,N/A,,Clear,180,2013-02-08 22:35:00
5:15 PM,50.0,19.4,30,30.06,10.0,South,19.6,23.0,N/A,,Clear,170,2013-02-08 23:15:00
5:35 PM,50.0,19.4,30,30.06,10.0,South,16.1,-,N/A,,Clear,170,2013-02-08 23:35:00
5:55 PM,48.2,19.4,32,30.05,10.0,South,10.4,-,N/A,,Clear,170,2013-02-08 23:55:00
6:15 PM,46.4,19.4,34,30.05,10.0,SSE,11.5,17.3,N/A,,Clear,160,2013-02-09 00:15:00
6:35 PM,46.4,19.4,34,30.05,10.0,South,9.2,-,N/A,,Clear,170,2013-02-09 00:35:00
6:55 PM,46.4,19.4,34,30.05,10.0,South,9.2,-,N/A,,Clear,170,2013-02-09 00:55:00
7:15 PM,44.6,17.6,34,30.05,10.0,South,8.1,-,N/A,,Clear,170,2013-02-09 01:15:00
7:35 PM,44.6,17.6,34,30.04,10.0,SSE,8.1,-,N/A,,Clear,160,2013-02-09 01:35:00
7:55 PM,42.8,15.8,34,30.05,10.0,SSE,8.1,-,N/A,,Clear,160,2013-02-09 01:55:00
8:15 PM,42.8,15.8,34,30.04,10.0,SSE,8.1,-,N/A,,Clear,150,2013-02-09 02:15:00
8:35 PM,42.8,14.0,31,30.04,10.0,SE,8.1,-,N/A,,Clear,140,2013-02-09 02:35:00
8:55 PM,41.0,15.8,36,30.04,10.0,SSE,10.4,-,N/A,,Clear,150,2013-02-09 02:55:00
9:15 PM,42.8,15.8,34,30.04,10.0,SSE,10.4,-,N/A,,Clear,150,2013-02-09 03:15:00
9:35 PM,42.8,15.8,34,30.04,10.0,SSE,11.5,-,N/A,,Clear,150,2013-02-09 03:35:00
9:55 PM,41.0,15.8,36,30.04,10.0,SSE,11.5,-,N/A,,Clear,150,2013-02-09 03:55:00
10:15 PM,41.0,15.8,36,30.03,10.0,SSE,10.4,-,N/A,,Clear,150,2013-02-09 04:15:00
10:35 PM,41.0,14.0,33,30.04,10.0,SSE,5.8,-,N/A,,Clear,150,2013-02-09 04:35:00
10:55 PM,39.2,14.0,36,30.04,10.0,SE,8.1,-,N/A,,Clear,130,2013-02-09 04:55:00
11:15 PM,39.2,15.8,39,30.03,10.0,SE,4.6,-,N/A,,Clear,140,2013-02-09 05:15:00
11:35 PM,37.4,15.8,41,30.03,10.0,SE,6.9,-,N/A,,Clear,140,2013-02-09 05:35:00